GW1438 Weather Reports


time (UTC)temp
F
wind
direction
speed
knots
gust
knots
rain 1hr
in
rain 24hr
in
rain mn
in
humidity
%
barometer
mb
20260507134247 53 209 0.9 0.9 0.00 0.02 0.02 68 1014.6
20260507133742 53 226 0.0 0.0 0.00 0.02 0.02 76 1014.8
20260507133239 53 226 0.0 0.9 0.00 0.02 0.02 74 1014.6
20260507132737 53 225 0.0 0.0 0.00 0.02 0.02 74 1014.7
20260507132233 53 220 0.0 0.0 0.00 0.02 0.02 73 1014.7
20260507131730 53 248 0.0 0.0 0.00 0.02 0.02 72 1014.6
20260507131227 53 217 0.0 0.0 0.00 0.02 0.02 76 1014.7
20260507130724 53 217 0.0 0.0 0.00 0.02 0.02 76 1014.7
20260507130222 53 217 0.0 0.0 0.00 0.02 0.02 76 1014.9
20260507125720 53 213 0.0 0.0 0.00 0.02 0.02 73 1014.7
20260507125217 53 199 0.0 0.9 0.00 0.02 0.02 75 1014.8
20260507124714 52 220 0.0 0.0 0.00 0.02 0.02 75 1014.7
20260507124211 52 217 0.0 0.0 0.00 0.02 0.02 75 1014.8
20260507123709 52 219 0.0 0.0 0.00 0.02 0.02 75 1014.4
20260507123206 52 215 0.0 0.0 0.00 0.02 0.02 75 1014.5
20260507122701 52 232 0.0 0.0 0.00 0.02 0.02 72 1014.5
20260507122157 52 227 0.0 0.9 0.00 0.02 0.02 75 1014.7
20260507121653 52 222 0.0 0.0 0.00 0.02 0.02 75 1014.6
20260507121149 52 225 0.0 0.0 0.00 0.02 0.02 73 1014.4
20260507120646 52 221 0.0 0.0 0.00 0.02 0.02 72 1014.4
20260507120142 52 228 0.9 0.9 0.00 0.02 0.02 72 1014.4
20260507115639 52 233 0.9 0.9 0.00 0.02 0.02 74 1014.4
20260507115134 52 217 0.0 0.0 0.00 0.02 0.02 75 1014.3
20260507114630 52 217 0.0 0.0 0.00 0.02 0.02 75 1014.4
20260507114128 52 269 1.7 2.6 0.00 0.02 0.02 77 1014.4
20260507113625 52 221 0.0 0.0 0.00 0.02 0.02 78 1014.4
20260507113122 52 218 0.0 0.0 0.00 0.02 0.02 77 1014.2
20260507112620 52 234 0.0 0.9 0.00 0.02 0.02 77 1014.5
20260507112116 52 217 0.0 0.0 0.00 0.02 0.02 78 1014.2
20260507111614 52 222 0.0 0.0 0.00 0.02 0.02 77 1014.4
20260507111110 52 222 0.0 0.9 0.00 0.02 0.02 77 1014.4
20260507110607 52 222 0.0 0.0 0.00 0.02 0.02 78 1014.2
20260507110103 52 220 0.0 0.0 0.00 0.02 0.02 80 1014.0
20260507105600 52 219 0.0 0.0 0.00 0.02 0.02 79 1014.4
20260507105056 52 217 0.0 0.0 0.00 0.02 0.02 80 1014.2
20260507104554 52 226 0.0 0.0 0.00 0.02 0.02 80 1014.1
20260507104050 52 216 0.0 0.0 0.00 0.02 0.02 79 1014.2
20260507103546 52 220 0.0 0.0 0.00 0.02 0.02 78 1014.0
20260507103043 52 211 0.0 0.9 0.00 0.02 0.02 79 1013.9
20260507102539 52 225 0.0 0.0 0.00 0.02 0.02 79 1014.0
20260507102036 52 218 0.0 0.0 0.00 0.02 0.02 85 1013.6
20260507101531 52 216 0.0 0.0 0.00 0.02 0.02 87 1013.6
20260507101028 52 216 0.0 0.0 0.00 0.02 0.02 87 1013.6
20260507100525 52 216 0.0 0.0 0.00 0.02 0.02 87 1013.4
20260507100023 52 232 0.0 0.0 0.00 0.02 0.02 88 1013.4
20260507095521 52 236 0.0 0.9 0.00 0.02 0.02 90 1013.5
20260507095017 52 226 0.0 0.0 0.00 0.02 0.02 91 1013.8
20260507094514 52 223 0.0 0.0 0.00 0.02 0.02 92 1013.5
20260507094011 53 211 0.0 0.0 0.00 0.02 0.02 92 1013.7
20260507093508 53 220 0.0 0.0 0.00 0.02 0.02 92 1013.5
20260507093007 53 214 0.0 0.0 0.00 0.02 0.02 92 1013.1
20260507092503 53 216 0.0 0.0 0.00 0.02 0.02 92 1013.4
20260507091959 53 216 0.0 0.0 0.00 0.02 0.02 92 1013.4
20260507091456 53 215 0.0 0.0 0.00 0.02 0.02 92 1013.3
20260507090952 53 215 0.0 0.0 0.00 0.02 0.02 91 1013.4
20260507090448 53 216 0.0 0.0 0.00 0.02 0.02 91 1013.5
20260507085945 53 220 0.0 0.9 0.00 0.02 0.02 91 1013.8
20260507085442 53 251 0.9 0.9 0.00 0.02 0.02 91 1013.4
20260507084939 53 251 0.0 0.9 0.00 0.02 0.02 91 1013.0
20260507084435 53 221 0.0 0.0 0.00 0.02 0.02 92 1013.3
20260507083933 53 224 0.0 0.0 0.00 0.02 0.02 93 1013.3
20260507083429 53 219 0.0 0.0 0.00 0.02 0.02 93 1013.3
20260507082925 53 214 0.0 0.0 0.00 0.02 0.02 94 1012.9
20260507082421 53 214 0.0 0.0 0.00 0.02 0.02 94 1013.0
20260507081918 53 219 0.0 0.0 0.00 0.02 0.02 93 1012.9
20260507081414 53 214 0.0 0.0 0.00 0.02 0.02 93 1012.8
20260507080911 53 214 0.0 0.0 0.00 0.02 0.02 93 1012.5
20260507080407 53 231 0.0 0.0 0.00 0.02 0.02 94 1012.6
20260507075903 53 223 0.0 0.0 0.00 0.02 0.02 93 1012.7
20260507075359 53 220 0.0 0.0 0.00 0.02 0.02 94 1012.3
20260507074856 53 221 0.0 0.0 0.00 0.02 0.02 93 1012.4
20260507074353 53 217 0.0 0.0 0.00 0.02 0.02 93 1012.6
20260507073850 53 223 0.0 0.0 0.00 0.02 0.02 92 1012.3
20260507073347 53 222 0.0 0.9 0.00 0.02 0.02 92 1012.3
20260507072844 54 252 0.0 0.9 0.00 0.02 0.02 91 1012.4
20260507072341 54 226 0.9 0.9 0.00 0.02 0.02 91 1012.5
20260507071838 54 232 0.9 0.9 0.00 0.02 0.02 91 1012.5
20260507071336 54 228 0.0 0.9 0.00 0.02 0.02 91 1012.3
20260507070832 54 217 0.0 0.0 0.00 0.02 0.02 91 1012.4
20260507070329 54 219 0.0 0.0 0.00 0.02 0.02 91 1012.5
20260507065826 55 225 0.0 0.9 0.00 0.02 0.02 91 1012.5
20260507065322 55 223 0.9 1.7 0.00 0.02 0.02 91 1012.5
20260507064820 55 222 0.9 1.7 0.00 0.02 0.02 91 1012.6
20260507064318 55 214 0.9 0.9 0.00 0.02 0.02 91 1012.6
20260507063816 55 236 0.0 0.9 0.00 0.02 0.02 91 1012.6
20260507063312 55 241 0.9 0.9 0.00 0.02 0.02 92 1012.6
20260507062809 55 235 1.7 1.7 0.00 0.02 0.02 93 1012.9
20260507062306 55 230 0.9 0.9 0.00 0.02 0.02 94 1012.6
20260507061804 55 221 0.0 0.0 0.00 0.02 0.02 95 1012.4
20260507061302 55 227 0.0 0.0 0.00 0.02 0.02 95 1012.2
20260507060800 55 232 0.0 0.0 0.00 0.02 0.02 95 1012.4
20260507060256 55 219 0.0 0.0 0.07 0.02 0.02 95 1012.7
20260507055753 55 224 0.0 0.0 0.07 0.02 0.02 95 1012.7
20260507055248 56 217 0.0 0.0 0.00 0.01 0.01 95 1012.9
20260507054745 56 218 0.0 0.0 0.00 0.01 0.01 95 1012.5
20260507054241 56 221 0.0 0.0 0.00 0.01 0.01 94 1012.5
20260507053739 56 228 0.0 0.9 0.00 0.01 0.01 94 1013.0
20260507053236 56 223 0.0 0.0 0.00 0.01 0.01 93 1012.8
20260507052735 56 245 0.0 0.0 0.00 0.01 0.01 93 1012.8
20260507052231 56 225 0.0 0.0 0.00 0.01 0.01 93 1012.6
20260507051729 56 238 0.9 0.9 0.05 0.01 0.01 92 1012.6
20260507051226 56 235 0.9 0.9 0.05 0.01 0.01 92 1012.9
20260507050722 56 238 0.9 0.9 0.00 0.00 0.00 92 1012.7
20260507050220 57 225 0.9 0.9 0.00 0.00 0.00 91 1012.6
20260507045716 57 220 0.0 0.0 0.00 0.00 0.00 91 1012.7
20260507045212 57 195 0.9 1.7 0.00 0.00 0.00 90 1012.9
20260507044710 57 231 1.7 2.6 0.00 0.00 0.00 89 1012.4
20260507044206 57 215 0.0 0.0 0.00 0.00 0.00 89 1012.6
20260507043702 58 225 0.0 0.9 0.00 0.00 0.00 88 1012.4
20260507043159 58 259 0.9 0.9 0.00 0.00 0.00 87 1012.7
20260507042656 58 223 0.0 0.0 0.00 0.00 0.00 87 1013.0
20260507042150 58 215 0.0 0.0 0.00 0.00 0.00 86 1012.7
20260507041648 58 224 0.9 1.7 0.00 0.00 0.00 86 1012.9
20260507041144 59 226 0.9 0.9 0.00 0.00 0.00 85 1012.7
20260507040642 59 233 0.9 0.9 0.00 0.00 0.00 85 1012.3
20260507040138 59 230 0.0 0.9 0.00 0.00 0.00 84 1012.6
20260507035634 59 225 0.0 0.0 0.00 0.29 0.29 84 1012.3
20260507035130 60 230 0.0 0.0 0.00 0.29 0.29 83 1012.0
20260507034627 60 224 0.0 0.0 0.00 0.29 0.29 82 1011.8
20260507034125 61 223 0.0 0.0 0.00 0.29 0.29 80 1012.1
20260507033623 61 232 0.9 0.9 0.00 0.29 0.29 78 1012.3
20260507033119 61 250 0.9 0.9 0.00 0.29 0.29 78 1012.1
20260507032617 61 225 0.0 0.9 0.00 0.29 0.29 79 1011.9
20260507032113 61 231 0.0 0.9 0.00 0.29 0.29 78 1012.2
20260507031610 61 228 0.9 0.9 0.00 0.29 0.29 78 1012.3
20260507031106 61 245 0.9 1.7 0.00 0.29 0.29 80 1012.0
20260507030603 62 226 0.0 0.9 0.00 0.29 0.29 81 1012.0
20260507030101 62 221 0.9 0.9 0.00 0.29 0.29 81 1012.0
20260507025558 62 273 0.9 1.7 0.00 0.29 0.29 82 1011.8
20260507025055 62 232 0.9 0.9 0.00 0.29 0.29 83 1011.6
20260507024553 62 218 0.0 0.0 0.00 0.29 0.29 83 1011.8
20260507024050 62 258 0.9 0.9 0.00 0.29 0.29 82 1011.6
20260507023545 62 266 0.9 1.7 0.00 0.29 0.29 82 1011.5
20260507023043 63 248 0.9 1.7 0.00 0.29 0.29 82 1011.7
20260507022539 63 248 0.9 0.9 0.00 0.29 0.29 84 1011.5
20260507022035 63 232 0.9 0.9 0.00 0.29 0.29 85 1011.7
20260507021531 63 219 0.9 0.9 0.00 0.29 0.29 85 1011.5
20260507021028 63 230 0.9 0.9 0.00 0.29 0.29 86 1011.4
20260507020525 63 222 0.0 0.0 0.00 0.29 0.29 86 1011.3
20260507020022 64 239 0.9 0.9 0.00 0.29 0.29 86 1011.4
20260507015520 64 239 0.9 0.9 0.00 0.29 0.29 86 1011.2
20260507015018 64 255 0.0 0.9 0.00 0.29 0.29 86 1011.6
20260507014514 64 222 0.0 0.9 0.00 0.29 0.29 86 1011.4
20260507014010 64 237 0.9 0.9 0.00 0.29 0.29 86 1011.4
20260507013506 64 280 2.6 2.6 0.00 0.29 0.29 85 1011.5
20260507013004 64 235 0.9 0.9 0.00 0.29 0.29 85 1011.3
20260507012501 65 214 0.9 1.7 0.00 0.29 0.29 85 1011.5
20260507011957 65 222 0.0 0.0 0.00 0.29 0.29 84 1011.7
20260507011454 65 132 0.9 0.9 0.00 0.29 0.29 84 1011.7
20260507010950 65 244 0.9 0.9 0.00 0.29 0.29 84 1011.5
20260507010444 66 167 0.9 0.9 0.00 0.29 0.29 83 1011.5
20260507005941 66 240 1.7 1.7 0.00 0.29 0.29 82 1011.8
20260507005439 66 236 1.7 4.3 0.00 0.29 0.29 81 1011.5
20260507004935 66 293 1.7 1.7 0.00 0.29 0.29 84 1011.4
20260507004432 67 227 0.0 0.0 0.00 0.29 0.29 86 1011.2
20260507003930 67 217 0.0 0.0 0.00 0.29 0.29 86 1011.0
20260507003425 67 216 0.0 0.0 0.00 0.29 0.29 86 1011.0
20260507002920 67 228 0.0 0.0 0.00 0.29 0.29 85 1010.9
20260507002417 67 217 0.0 0.0 0.00 0.29 0.29 85 1011.1
20260507001914 67 177 0.0 0.0 0.00 0.29 0.29 85 1011.1
20260507001410 67 221 0.0 0.0 0.00 0.29 0.29 85 1010.8
20260507000908 67 218 0.0 0.0 0.00 0.29 0.29 85 1010.9
20260507000405 67 217 0.0 0.0 0.00 0.29 0.29 85 1010.9
20260506235859 67 221 0.0 0.9 0.00 0.29 0.29 84 1010.6
20260506235356 67 184 0.9 0.9 0.00 0.29 0.29 85 1010.7
20260506234846 67 215 0.0 0.0 0.00 0.29 0.29 85 1010.7
20260506234344 68 217 0.0 0.0 0.00 0.29 0.29 84 1010.7
20260506233842 68 197 0.0 0.9 0.00 0.29 0.29 84 1010.4
20260506233337 68 165 1.7 1.7 0.00 0.29 0.29 84 1010.1
20260506232835 68 216 0.0 0.0 0.00 0.29 0.29 83 1010.4
20260506232330 68 212 0.0 0.0 0.00 0.29 0.29 83 1010.5
20260506231827 68 221 0.0 0.0 0.00 0.29 0.29 83 1010.3
20260506231325 68 207 0.9 0.9 0.00 0.29 0.29 83 1010.1
20260506230822 68 204 0.9 0.9 0.00 0.29 0.29 82 1010.2
20260506230319 68 218 0.0 0.0 0.00 0.29 0.29 83 1010.2
20260506225815 68 213 0.0 0.0 0.00 0.29 0.29 83 1010.2
20260506225312 68 216 0.0 0.0 0.00 0.29 0.29 83 1010.1
20260506224809 69 223 0.0 0.0 0.00 0.29 0.29 82 1010.2
20260506224306 69 225 0.0 0.0 0.00 0.29 0.29 81 1010.2
20260506223803 69 215 0.0 0.9 0.00 0.29 0.29 81 1009.9
20260506223257 69 210 0.0 0.9 0.00 0.29 0.29 81 1009.9
20260506222754 69 207 0.0 0.0 0.00 0.29 0.29 81 1010.1
20260506222250 68 231 0.0 0.9 0.00 0.29 0.29 81 1010.1
20260506221743 68 204 0.9 0.9 0.00 0.29 0.29 81 1010.2
20260506221240 68 51 0.0 0.0 0.00 0.29 0.29 81 1010.1
20260506220737 68 197 0.9 0.9 0.00 0.29 0.29 81 1010.2
20260506220232 69 209 0.9 0.9 0.00 0.29 0.29 81 1010.2
20260506215729 69 256 0.0 0.9 0.00 0.29 0.29 81 1010.2
20260506215225 69 214 0.0 0.0 0.00 0.29 0.29 80 1010.2
20260506214721 69 230 0.9 0.9 0.00 0.29 0.29 80 1010.3
20260506214219 69 221 0.0 0.0 0.00 0.29 0.29 80 1010.1
20260506213717 69 228 0.9 0.9 0.00 0.29 0.29 80 1010.1
20260506213214 69 242 0.9 0.9 0.00 0.29 0.29 80 1010.1
20260506212711 69 248 1.7 1.7 0.00 0.29 0.29 79 1009.8
20260506212206 70 219 0.0 0.0 0.00 0.29 0.29 79 1009.8
20260506211702 70 230 0.0 0.0 0.00 0.29 0.29 78 1009.9
20260506211159 70 217 0.9 0.9 0.00 0.29 0.29 76 1009.8
20260506210655 70 17 0.9 1.7 0.00 0.29 0.29 78 1009.8
20260506210151 71 292 2.6 2.6 0.00 0.29 0.29 76 1009.6
20260506205649 71 192 0.9 0.9 0.00 0.29 0.29 77 1009.5
20260506205144 70 207 0.9 0.9 0.00 0.29 0.29 78 1009.4
20260506204642 71 110 2.6 5.2 0.00 0.29 0.29 76 1009.5
20260506204139 71 150 4.3 6.1 0.00 0.29 0.29 76 1009.4
20260506203637 71 356 1.7 1.7 0.00 0.29 0.29 76 1009.6
20260506203134 70 200 0.0 0.9 0.00 0.29 0.29 78 1009.5
20260506202632 69 223 0.0 0.9 0.00 0.29 0.29 78 1009.6
20260506202128 69 199 0.9 0.9 0.00 0.29 0.29 78 1009.7
20260506201625 69 264 1.7 1.7 0.00 0.29 0.29 78 1009.8
20260506201121 70 192 0.9 0.9 0.00 0.29 0.29 78 1009.7
20260506200618 70 284 0.9 0.9 0.00 0.29 0.29 78 1009.7
20260506200115 71 219 0.9 0.9 0.00 0.29 0.29 76 1009.9
20260506195611 71 57 1.7 1.7 0.00 0.29 0.29 75 1009.6
20260506195108 71 53 0.0 0.9 0.00 0.29 0.29 78 1009.6
20260506194605 71 241 1.7 1.7 0.00 0.29 0.29 76 1009.4
20260506194101 70 218 1.7 1.7 0.00 0.29 0.29 77 1009.6
20260506193559 70 216 0.9 0.9 0.00 0.29 0.29 79 1009.7
20260506193056 70 188 0.9 0.9 0.00 0.29 0.29 79 1009.6
20260506192553 71 196 0.9 1.7 0.00 0.29 0.29 77 1009.7
20260506192049 70 116 2.6 4.3 0.00 0.29 0.29 77 1009.4
20260506191546 69 233 0.0 0.9 0.00 0.29 0.29 79 1009.5
20260506191041 69 30 0.9 1.7 0.00 0.29 0.29 79 1009.8
20260506190539 68 241 0.9 0.9 0.00 0.29 0.29 79 1010.0
20260506190036 69 214 0.9 0.9 0.00 0.29 0.29 80 1010.0
20260506185533 68 217 0.0 0.9 0.00 0.29 0.29 82 1010.0
20260506185030 68 178 0.0 0.9 0.00 0.29 0.29 81 1010.1
20260506184527 67 289 2.6 4.3 0.00 0.29 0.29 81 1010.1
20260506184024 67 60 1.7 1.7 0.00 0.29 0.29 82 1010.2
20260506183520 67 11 1.7 1.7 0.00 0.29 0.29 82 1010.4
20260506183017 67 212 0.0 0.0 0.00 0.29 0.29 83 1010.5
20260506182515 67 249 1.7 1.7 0.00 0.29 0.29 84 1010.2
20260506182011 66 141 0.9 0.9 0.00 0.29 0.29 84 1010.3
20260506181509 66 37 0.9 0.9 0.00 0.29 0.29 84 1010.1
20260506181006 66 170 1.7 2.6 0.00 0.29 0.29 84 1010.2
20260506180503 66 51 0.9 1.7 0.00 0.29 0.29 85 1010.2
20260506175959 66 153 2.6 4.3 0.00 0.29 0.29 86 1010.3
20260506175455 65 169 0.9 1.7 0.00 0.29 0.29 86 1010.4
20260506174952 65 60 0.9 0.9 0.00 0.29 0.29 86 1010.5
20260506174451 64 335 2.6 4.3 0.00 0.29 0.29 88 1010.4
20260506173946 64 212 1.7 2.6 0.00 0.29 0.29 89 1010.5
20260506173444 63 142 1.7 1.7 0.00 0.29 0.29 90 1010.4
20260506172941 63 336 0.9 0.9 0.00 0.29 0.29 91 1010.5
20260506172438 63 55 2.6 2.6 0.00 0.29 0.29 92 1010.4
20260506171934 63 153 0.9 1.7 0.00 0.29 0.29 94 1010.3
20260506171432 62 148 2.6 2.6 0.00 0.29 0.29 94 1010.4
20260506170930 62 319 2.6 2.6 0.00 0.29 0.29 95 1010.7
20260506170425 62 253 0.9 1.7 0.00 0.29 0.29 96 1010.7
20260506165919 61 265 0.9 0.9 0.00 0.29 0.29 96 1010.8
20260506165417 61 215 0.9 0.9 0.00 0.29 0.29 97 1010.7
20260506164913 61 166 0.9 1.7 0.00 0.29 0.29 97 1010.5
20260506164409 61 276 0.9 0.9 0.00 0.29 0.29 98 1010.7
20260506163907 61 144 0.9 1.7 0.00 0.29 0.29 98 1010.8
20260506163401 61 12 2.6 2.6 0.00 0.29 0.29 98 1010.9
20260506162856 61 133 3.5 6.1 0.00 0.29 0.29 98 1011.0
20260506162354 60 167 0.9 0.9 0.00 0.29 0.29 98 1010.9
20260506161846 60 347 1.7 2.6 0.00 0.29 0.29 99 1010.7
20260506161343 60 212 0.0 0.0 0.00 0.29 0.29 99 1010.8
20260506160841 60 46 0.0 0.9 0.00 0.29 0.29 99 1010.8
20260506160338 60 117 4.3 7.0 0.00 0.29 0.29 99 1011.0
20260506155836 60 340 0.9 1.7 0.00 0.29 0.29 99 1010.9
20260506155333 60 328 0.9 0.9 0.00 0.29 0.29 99 1011.0
20260506153445 59 205 0.9 0.9 0.00 0.29 0.29 99 1011.1
20260506152942 59 69 3.5 7.0 0.00 0.29 0.29 99 1011.2
20260506152439 60 315 1.7 1.7 0.07 0.29 0.29 99 1010.9
20260506151938 59 21 0.0 0.9 0.07 0.29 0.29 99 1011.1
20260506151434 59 141 0.9 1.7 0.00 0.28 0.28 99 1011.2
20260506150932 59 216 0.9 0.9 0.00 0.28 0.28 99 1011.4
20260506150428 60 217 0.0 0.9 0.00 0.28 0.28 99 1011.1
20260506145925 59 45 0.9 0.9 0.05 0.28 0.28 99 1011.4
20260506145421 59 171 0.9 1.7 0.05 0.28 0.28 99 1011.4
20260506144919 59 31 2.6 5.2 0.00 0.27 0.27 99 1011.8
20260506144415 59 93 1.7 1.7 0.00 0.27 0.27 99 1011.9
20260506143914 59 346 0.0 0.9 0.07 0.27 0.27 99 1011.9
20260506143410 59 353 2.6 2.6 0.07 0.27 0.27 99 1011.9
20260506142909 59 226 0.9 0.9 0.05 0.26 0.26 99 1011.6
20260506142407 59 216 0.0 0.9 0.12 0.26 0.26 99 1011.8
20260506141904 59 193 0.9 0.9 0.12 0.25 0.25 98 1011.6
20260506141402 59 225 0.9 0.9 0.12 0.24 0.24 98 1011.4
20260506140900 59 219 0.9 0.9 0.14 0.23 0.23 98 1011.4
20260506140357 59 348 2.6 2.6 0.19 0.22 0.22 98 1011.5
20260506135854 59 31 1.7 1.7 0.17 0.21 0.21 98 1011.6
20260506135351 59 185 0.0 0.9 0.12 0.19 0.19 98 1011.4
20260506134847 60 293 0.9 0.9 0.19 0.18 0.18 98 1011.6